Regional Weather Roundup
Issued by NWS

Home | Current Version | Previous Version | Text Only | Print | Product List | Glossary Off
Versions: 1 2 3 4 5 6 7 8 9 10 11 12 13 14 15 16 17 18 19 20 21 22 23 24 25 26 27 28 29 30 31 32 33 34 35 36 37 38 39 40 41 42 43 44 45 46 47 48 49 50

756
ASUS43 KTOP 261308
RWRKS

WEATHER ROUNDUP FOR KANSAS
NATIONAL WEATHER SERVICE GOODLAND KS
800 AM CDT THU MAY 26 2016

NOTE:  "FAIR" INDICATES FEW OR NO CLOUDS BELOW 12,000 FEET WITH NO
SIGNIFICANT WEATHER AND/OR OBSTRUCTIONS TO VISIBILITY.

KSZ001>006-013>018-027>032-041>047-261400-
NORTHWEST KANSAS

CITY           SKY/WX    TMP DP  RH WIND       PRES   REMARKS
GOODLAND       SUNNY     56  48  74 N5        29.89S
HAYS           CLOUDY    55  52  88 NE16      29.82S
HILL CITY      MOSUNNY   56  52  86 N6        29.88R
RUSSELL        CLOUDY    61  57  87 NE12      29.82S
$$

KSZ061>065-074>080-084>089-261400-
SOUTHWEST KANSAS

CITY           SKY/WX    TMP DP  RH WIND       PRES   REMARKS
DODGE CITY     SUNNY     65  65 100 S10       29.79F FOG
ELKHART          N/A     57  35  43 NW5         N/A
GARDEN CITY    SUNNY     62  61  96 N3        29.82R
GREAT BEND     CLOUDY    70  63  78 E9        29.79F
LIBERAL        MOSUNNY   61  45  55 W5        29.81S
PRATT          MOSUNNY   72  69  89 S9        29.79F
$$

KSZ066>073-081>083-090>101-261400-
SOUTHEAST KANSAS

CITY           SKY/WX    TMP DP  RH WIND       PRES   REMARKS
CHANUTE        CLOUDY    77  73  87 S10G20    29.89S FOG
COFFEYVILLE    CLOUDY    77  73  87 SE9       29.89R
HUTCHINSON     SUNNY     75  71  87 SE13      29.79F FOG
MEDICINE LODGE   N/A     74  71  91 VRB5      29.79S
NEWTON         PTSUNNY   73  70  88 S10       29.86R
PARSONS        CLOUDY    77  74  90 VRB6      29.91S
WICHITA INTL   PTSUNNY   77  72  84 SE13      29.81F HAZE
WICHITA JABRA  PTSUNNY   75  73  93 S14       29.82F FOG
WICHITA MCCONL PTSUNNY   76  73  90 S12       29.83F
WINFIELD       PTSUNNY   76  72  87 S14       29.84S FOG
$$

KSZ007>012-019>026-033>040-048>060-102>105-261400-
NORTHEAST KANSAS

CITY           SKY/WX    TMP DP  RH WIND       PRES   REMARKS
CONCORDIA      MOSUNNY   63  57  81 E8        29.84F
EMPORIA        CLOUDY    74  73  97 SE7       29.86S FOG
LAWRENCE       PTSUNNY   68  63  84 SE7       29.88S
MANHATTAN      MOSUNNY   71  64  78 E6        29.84F
MARYSVILLE     SUNNY     68  63  83 SE9       29.88R
OLATHE IND     CLOUDY    67  62  84 E8        29.90S
OLATHE EXE     PTSUNNY   65  62  90 S6        29.91R
SALINA         CLOUDY    67  64  90 E7        29.83S
TOPEKA BILLARD CLOUDY    68  62  81 E6        29.87S
TOPEKA FORBES  CLOUDY    68  63  84 SE9       29.87S
$$




USA.gov is the U.S. government's official web portal to all federal, state and local government web resources and services.